SCP
0 0 0 0 0 0 0 0 0 0 0 0 0 0 0 0 0 0 0 0 0 0 0 0 0 0 0 0 0 0 0 0 0 0 0 0 0 0
0 0 0 0 0 0 0 0 0 0 0 0 0 0 0 0 0 0 0 0 0 0 0 0 0 0 0 0 0 0 0 0 0 0 0 0 0 0
0 0 0 0 0 0 0 0 0 0 0 0 0 0 0 0 0 0 0 0 0 0 0 0 0 0 0 0 0 0 0 0 0 0 0 0 0 0
0 0 0 0 0 0 0 0 0 0 0 0 0 0 0 0 0 0 0 0 0 0 0 0 0 0 0 0 0 0 0 0 0 0 0 0 0 0
0 0 0 0 0 0 0 0 0 0 0 0 0 0 0 0 0 0 0 0 0 0 0 0 0 0 0 0 0 0 0 0 0 0 0 0 0 0
0 0 0 0 0 0 0 0 0 0 0 0 0 0 0 0 0 0 0 0 0 0 0 0 0 0 0 0 0 0 0 0 0 0 0 0 0 0
0 0 0 0 0 0 0 0 0 0 0 0 0 0 0 0 0 0 0 0 0 0 0 0 0 0 0 0 0 0 0 0 0 0 0 0 0 0
0 0 0 0 0 0 0 0 0 0 0 0 0 0 0 0 0 0 0 0 0 0 0 0 0 0 0 0 0 0 0 0 0 0 0 0 0 0
0 0 0 0 0 0 0 0 0 0 0 0 0 0 0 0 0 0 0 0 0 0 0 0 0 0 0 0 0 0 0 0 0 0 0 0 0 0
0 0 0 0 0 0 0 0 0 0 0 0 0 0 0 0 0 0 0 0 0 0 0 0 0 0 0 0 0 0 0 0 0 0 0 0 0 0
0 0 0 0 0 0 0 0 0 0 0 0 0 0 0 0 0 0 0 0 0 0 0 0 0 0 0 0 0 0 0 0 0 0 0 0 0 0
0 0 0 0 0 0 0 0 0 0 0 0 0 0 0 0 0 0 0 0 0 0 0 0 0 0 0 0 0 0 0 0 0 0 0 0 0 0
0 0 0 0 0 0 0 0 0 0 0 0 0 0 0 0 0 0 0 0 0 0 0 0 0 0 0 0 0 0 0 0 0 0 0 0 0 0
0 0 0 0 0 0 0 0 0 0 0 0 0 0 0 0 0 0 0 0 0 0 0 0 0 0 0 0 0 0 0 0 0 0 0 0 0 0
0 0 0 0 0 0 0 0 0 0 0 0 0 0 0 0 0 0 0 0 0 0 0 0 0 0 0 0 0 0 0 0 0 0 0 0 0 0
0 0 0 0 0 0 0 0 0 0 0 0 0 0 0 0 0 0 0 0 0 0 0 0 0 0 0 0 0 0 0 0 0 0 0 0 0 0
0 0 0 0 0 0 0 0 0 0 0 0 0 0 0 0 0 0 0 0 0 0 0 0 0 0 0 0 0 0 0 0 0 0 0 0 0 0
0 0 0 0 0 0 0 0 0 0 0 0 0 0 0 0 0 0 0 0 0 0 0 0 0 0 0 0 0 0 0 0 0 0 0 0 0 0
0 0 0 0 0 0 0 0 0 0 0 0 0 0 0 0 0 0 0 0 0 0 0 0 0 0 0 0 0 0 0 0 0 0 0 0 0 0
0 0 0 0 0 0 0 0 0 0 0 0 0 0 0 0 0 0 0 0 0 0 0 0 0 0 0 0 0 0 0 0 0 0 0 0 0 0
0 0 0 0 0 0 0 0 0 0 0 0 0 0 0 0 0 0 0 0 0 0 0 0 0 0 0 0 0 0 0 0 0 0 0 0 0 0
0 0 0 0 0 0 0 0 0 0 0 0 0 0 0 0 0 0 0 0 0 0 0 0 0 0 0 0 0 0 0 0 0 0 0 0 0 0
0 0 0 0 0 0 0 0 0 0 0 0 0 0 0 0 0 0 0 0 0 0 0 0 0 0 0 0 0 0 0 0 0 0 0 0 0 0
Wind_Speed
1 1 1 1 1 2 2 2 2 1 2 2 2 2 2 2 2 2 2 4 5 5 6 6 6 6 6 6 6 6 6 7 7 7 8 9 9 10
1 1 1 1 1 1 2 2 2 3 2 2 2 2 2 2 2 2 3 3 4 4 5 6 6 6 6 5 5 5 6 6 7 7 8 9 9 10
0 1 0 0 0 0 1 1 2 2 2 2 1 1 2 2 1 1 2 2 2 4 5 5 6 6 6 5 5 5 5 6 6 7 7 8 9 9
1 1 1 0 0 0 1 1 1 2 2 2 1 1 2 2 2 2 1 2 2 3 4 5 5 5 6 6 6 5 5 6 6 7 7 7 8 9
1 2 2 1 1 1 1 1 1 1 1 2 2 1 1 1 1 1 1 1 2 2 3 4 4 4 5 6 6 6 6 6 6 7 7 7 7 7
1 2 2 2 2 2 1 1 1 1 1 1 1 1 1 1 0 1 1 1 1 1 1 2 3 4 5 6 6 7 7 7 7 7 7 7 6 7
1 1 1 1 1 2 2 2 2 1 1 1 1 1 1 1 1 1 1 1 1 1 1 2 2 2 3 5 6 7 8 8 7 7 7 8 7 7
2 2 1 1 1 1 2 3 3 3 3 2 2 2 3 2 1 1 1 1 2 1 1 2 1 2 3 3 5 7 8 8 8 8 7 7 7 7
2 2 1 1 1 1 2 2 2 4 5 4 4 4 3 3 2 2 2 2 3 2 1 2 2 3 3 3 5 7 8 8 8 8 8 7 7 7
2 3 2 2 2 1 1 1 2 2 4 4 5 5 5 4 4 3 2 2 3 2 2 3 2 3 3 3 4 6 7 7 7 8 8 7 7 7
3 2 3 2 2 1 1 1 2 3 3 3 4 5 5 5 4 2 2 2 3 2 2 2 2 2 3 4 4 5 6 6 7 7 8 8 7 7
2 2 2 3 2 1 2 2 3 3 3 2 2 3 3 3 4 4 4 3 3 3 2 3 2 2 2 2 3 3 3 5 6 7 7 8 7 5
2 2 2 3 3 3 3 3 5 4 2 2 2 2 2 2 2 3 4 4 4 4 2 3 2 2 3 3 3 3 3 3 3 3 5 6 7 7
2 2 3 3 3 3 3 4 4 3 2 2 2 2 3 3 3 3 4 5 5 6 4 4 3 3 3 4 4 3 3 3 3 3 3 4 6 8
2 3 3 3 3 2 3 4 3 2 2 2 3 3 3 3 3 2 2 3 4 4 4 5 4 4 4 4 5 4 3 3 3 3 3 4 4 4
1 2 2 2 2 2 3 2 2 2 3 3 3 3 3 2 2 2 2 1 2 2 2 3 4 4 4 5 5 5 4 3 3 3 4 4 4 4
0 1 1 1 2 2 2 2 2 2 2 3 3 3 3 2 2 1 1 1 2 3 3 2 2 3 5 5 5 5 5 4 4 3 4 4 5 5
1 1 2 2 2 3 3 3 3 3 3 3 3 3 3 2 2 2 1 2 3 3 3 3 2 2 3 4 6 6 5 4 4 3 4 5 6 5
1 2 2 3 3 3 3 3 3 3 3 3 3 3 3 3 3 2 2 3 3 3 3 3 2 3 4 5 3 5 4 4 3 4 4 5 6 5
2 3 3 3 3 4 4 3 3 3 2 3 3 3 3 3 3 3 3 3 3 3 3 3 3 4 5 5 4 3 5 4 4 4 4 4 5 5
2 3 3 3 4 4 4 3 3 3 3 3 3 3 3 3 3 3 3 4 4 3 4 4 4 5 4 3 4 4 3 4 5 4 4 3 4 3
3 3 4 4 3 3 3 3 3 3 3 3 3 3 3 3 4 4 4 4 4 4 4 4 3 2 3 4 5 5 4 3 3 4 4 4 3 3
4 3 3 3 3 3 3 3 4 3 3 3 3 3 3 3 3 3 3 4 4 4 3 4 3 2 3 4 4 4 5 4 3 3 3 4 6 7
Wind_Direction
187 187 199 212 194 195 183 175 173 205 262 267 274 284 269 254 249 234 242 245 234 226 226 227 229 233 233 237 236 232 227 224 226 231 233 234 235 236
171 182 221 223 204 195 187 188 188 191 225 248 248 275 272 255 242 238 239 251 243 233 228 227 229 231 231 227 231 223 220 222 226 231 234 234 237 236
175 167 253 177 167 176 164 170 190 188 214 254 249 270 256 252 273 253 241 235 238 238 238 232 229 228 224 219 218 216 219 223 225 232 238 235 233 233
215 181 227 173 179 177 142 178 198 200 207 241 268 278 269 263 259 251 254 239 239 237 236 236 232 224 220 216 216 219 221 225 228 232 237 239 235 233
215 210 220 182 213 206 184 212 236 214 207 221 263 281 293 309 307 288 278 268 248 225 222 229 231 227 223 223 223 222 221 227 234 231 233 238 233 232
245 234 223 201 217 218 211 218 217 216 199 221 259 281 292 300 280 270 290 278 270 268 258 250 240 234 231 229 229 228 225 227 233 232 229 228 230 233
266 266 230 207 212 203 206 204 192 203 212 221 249 266 281 287 272 261 260 278 283 259 262 265 251 248 242 236 235 233 229 228 228 228 226 223 223 227
243 268 263 266 281 247 224 198 184 194 210 214 233 240 256 252 253 243 246 259 274 239 224 273 258 262 264 251 244 236 233 231 231 230 226 223 221 224
229 244 260 272 261 256 256 247 230 220 206 203 221 234 238 233 220 239 239 242 253 257 215 270 269 269 275 270 248 238 232 230 230 231 229 225 221 222
235 233 238 264 262 221 224 262 273 259 238 226 233 242 242 234 219 228 235 248 264 257 220 256 268 269 283 278 266 247 238 233 231 230 229 227 224 223
253 242 235 239 252 193 178 255 286 288 270 256 251 258 257 246 219 202 219 232 271 268 210 229 257 274 279 281 281 265 248 239 233 231 229 226 224 224
277 266 246 247 258 213 199 224 262 279 295 307 302 296 279 263 224 214 219 229 250 264 215 209 235 247 275 272 282 282 265 250 239 235 229 224 221 219
266 278 279 273 263 251 227 227 245 260 273 276 289 298 299 286 264 241 228 224 233 248 225 202 226 226 245 274 282 280 272 269 255 241 229 224 217 210
260 273 283 285 272 260 245 247 255 255 260 271 280 286 285 280 271 256 242 239 242 249 244 220 232 230 241 266 275 279 274 266 255 250 240 222 220 220
264 276 285 291 284 274 269 264 254 245 247 261 270 273 272 272 274 269 261 255 261 260 251 235 231 237 239 251 263 267 276 275 259 253 246 235 228 218
297 309 308 302 295 285 287 275 249 238 238 252 266 273 279 280 276 272 274 280 281 284 271 249 236 231 244 253 256 261 258 258 260 252 248 248 242 230
233 345 337 329 316 305 293 279 263 247 247 255 259 269 274 275 278 277 268 267 262 277 290 293 264 252 252 253 256 257 258 259 255 254 248 253 248 240
141 258 278 274 271 279 282 283 269 257 255 255 257 258 264 270 280 279 258 254 262 272 278 286 286 276 267 257 235 249 256 257 260 253 245 248 254 246
179 249 260 266 267 267 271 271 272 271 259 250 251 249 245 246 249 255 256 257 264 273 277 276 269 264 275 283 271 221 245 263 261 259 249 247 257 259
237 253 259 262 265 267 268 269 273 277 264 255 251 249 244 244 248 253 254 256 263 270 275 271 261 255 259 273 280 273 238 247 254 262 262 256 261 266
245 254 257 258 263 268 270 269 268 268 266 262 259 253 247 245 251 255 257 257 259 263 270 275 274 268 264 261 266 273 275 247 239 251 257 255 259 254
253 257 263 262 262 265 268 268 268 268 265 260 261 257 249 245 251 256 258 261 263 266 275 284 293 280 254 255 265 274 283 289 260 250 255 244 250 254
252 252 260 266 266 264 263 264 262 263 262 260 261 254 246 247 251 252 258 262 266 272 280 285 289 283 276 269 267 273 282 291 293 288 287 274 247 252